AirNav   Everest Fuels
 
 844 users online  

01J Hilliard Airpark
Hilliard, Florida, USA

GOING TO HILLIARD?


FAA INFORMATION EFFECTIVE 28 MARCH 2019

Location

FAA Identifier: 01J
Lat/Long: 30-41-09.4800N / 081-54-22.8350W
30-41.158000N / 081-54.380583W
30.6859667 / -81.9063431
(estimated)
Elevation: 59 ft. / 18.0 m (surveyed)
Variation: 03W (1985)
From city: 1 mile E of HILLIARD, FL
Time zone: UTC -4 (UTC -5 during Standard Time)
Zip code: 32046

Airport Operations

Airport use: Open to the public
Activation date: 12/1969
Control tower: no
ARTCC: JACKSONVILLE CENTER
FSS: GAINESVILLE FLIGHT SERVICE STATION
NOTAMs facility: GNV (NOTAM-D service available)
Attendance: UNATNDD
Wind indicator: lighted
Segmented circle: no
Lights: ACTVT HIRL RY 18/36 - CTAF.
Beacon: white-green (lighted land airport)
Operates sunset to sunrise.

Airport Communications

CTAF: 122.9
WX ASOS at JAX (16 nm SE): PHONE 904-741-4304

Nearby radio navigation aids

VOR radial/distance  VOR name  Freq  Var
VQQr001/(28.4)CECIL VOR117.9003W
CRGr318/29.2CRAIG VORTAC114.5003W
SSIr231/32.3BRUNSWICK VORTAC109.8004W
TAYr075/35.1TAYLOR VORTAC112.9003W

 
NDB name  Hdg/Dist  Freq  Var  ID
DINNS344/14.334406WJA .--- .-

Airport Services

Fuel available: 100LL
Parking: tiedowns
Airframe service: NONE
Powerplant service: NONE
Bottled oxygen: NONE
Bulk oxygen: NONE

Runway Information

Runway 18/36

Dimensions: 3600 x 125 ft. / 1097 x 38 m
Surface: turf, in fair condition
Runway edge lights: high intensity
Gradient: ESTD
RUNWAY 18  RUNWAY 36
Latitude: 30-41.454833N30-40.861167N
Longitude: 081-54.387000W081-54.374167W
Elevation: 54.1 ft.51.3 ft.
Gradient: 0.2%0.2%
Traffic pattern: leftleft
Displaced threshold: 400 ft.730 ft.
Markings: NSTD, in good conditionNSTD, in good condition
Visual slope indicator: 2-light PAPI on right (3.00 degrees glide path)
PAPI 18 UNUSBL BYD 8 DEG RIGHT OF CRS.
2-light PAPI on left (3.00 degrees glide path)
PAPI 36 UNUSBL BYD 5 DEG LEFT OF CRS.
Touchdown point: yes, no lightsyes, no lights
Obstructions: 7 ft. fence, 32 ft. from runway, 4:1 slope to clear
RWY 18 APCH RATIO 19:1 TO DSPLCD THLD DUE TO 44 FT TREES 420 FT FROM END OF RWY 75 FT LEFT OF CNTRLN.
54 ft. trees, 270 ft. from runway, 90 ft. right of centerline, 5:1 slope to clear
RWY 36 APCH RATIO 18:1 TO DSPLCD THLD DUE TO 71 FT TREES 125 FT RIGHT OF CNTRLN; 540 FT FROM RWY END.

Airport Ownership and Management from official FAA records

Ownership: Publicly-owned
Owner: TOWN OF HILLIARD
PO BOX 249
HILLIARD, FL 32046
Phone 904-845-3555
CONTACT PERSON: LISA PURVIS, 904-845-3555
Manager: JOE BLAKE
P.O. BOX 549, P.O. BOX 549
HILLIARD, FL 32406
Phone 904-923-0482
AIRPORT PHYSICAL ADDRESS: 37776 EAST WOOD ROAD

Airport Operational Statistics

Aircraft based on the field: 25
Single engine airplanes: 24
Ultralights: 1
    
Aircraft operations: avg 96/week *
62% local general aviation
38% transient general aviation
* for 12-month period ending 06 February 2018

Additional Remarks

ARPT CLSD EXCP VMC & FM SS-SR.

Instrument Procedures

There are no published instrument procedures at 01J.

Some nearby airports with instrument procedures:

KJAX - Jacksonville International Airport (16 nm SE)
KFHB - Fernandina Beach Municipal Airport (23 nm E)
KHEG - Herlong Recreational Airport (25 nm S)
KVQQ - Cecil Airport (28 nm S)
KCRG - Jacksonville Executive Airport at Craig (29 nm SE)
 
Loc | Ops | Rwys | IFR | FBO | Links
Com | Nav | Svcs | Stats | Notes
Area around 01J (Hilliard Airpark)
 
Road maps at: MapQuest Bing Google
 
Aerial photo
WARNING: Photo may not be current or correct
Aerial photo of 01J (Hilliard Airpark)
Photo by Jack Baily
Photo taken 18-May-2013
looking south.

Do you have a better or more recent aerial photo of Hilliard Airpark that you would like to share? If so, please send us your photo.

 
Sectional chart

 
Airport distance calculator
Flying to Hilliard Airpark? Find the distance to fly.

From to 01J

Sunrise and sunset
Times for 21-Apr-2019
 Local
(UTC-4)
 Zulu
(UTC)
Morning civil twilight06:3010:30
Sunrise06:5510:55
Sunset19:5823:58
Evening civil twilight20:2300:23

Current date and time
Zulu (UTC)  21-Apr-2019 13:46:15
Local (UTC-4)  21-Apr-2019 09:46:15
 
METAR
KJAX 
16nm SE 
211256Z 27005KT 10SM FEW080 FEW120 15/09 A3010 RMK AO2 SLP193 T01500094
KFHB 
23nm E 
211335Z AUTO 25006KT 10SM SCT080 17/08 A3011 RMK AO2 T01720082
KHEG 
25nm S 
211335Z AUTO 00000KT 9SM CLR 17/08 A3014 RMK AO2
KVQQ 
28nm S 
211250Z VRB03KT 10SM CLR 15/11 A3011
KCRG 
29nm SE 
211253Z VRB03KT 10SM CLR 16/09 A3010 RMK AO2 SLP194 T01560094 $
KNIP 
31nm SE 
211253Z 25005KT 10SM FEW080 16/07 A3011 RMK AO2 SLP192 T01560072
KNRB 
31nm SE 
211252Z AUTO 23004KT 10SM CLR 16/10 A3010 RMK AO2 SLP192 T01610100
TAF
KJAX 
16nm SE 
211120Z 2112/2212 25003KT P6SM FEW080 FM211600 28010G15KT P6SM SKC FM220100 22002KT P6SM SKC
NOTAMs
Click for the latest NOTAMs
NOTAMs are issued by the DoD/FAA and will open in a separate window not controlled by AirNav.

 

 
 

FBO, Fuel Providers, and Aircraft Ground Support

  
 Business Name 
 
 Contact 
 
 Services / Description 
 
Fuel Prices
 
Comments
  
Hilliard Aviation 904-923-0482
[web site]
[email]
Airport management, Aviation fuel, Organization with aviation interests

More info about Hilliard Aviation
Shell
100LL
SS $3.99 
 Updated 15-Apr-2019
 
   write
SS=Self service
Update Fuel Prices
 

Would you like to see your business listed on this page?

 If your business provides an interesting product or service to pilots, flight crews, aircraft, or users of the Hilliard Airpark, you should consider listing it here.  To start the listing process, click on the button below
 
Add a business
 

Other Pages about Hilliard Airpark

01j.8k.com
 
Update a link
 
Copyright © AirNav, LLC. All rights reserved. Privacy Policy  Contact